Showing default

KUIPER-00028, 63741

Orbit data source: Space-Track

KUIPER-00028, 63741 is a payload satellite owned by Kuiper Systems (US) in LEO that was launched on Mon, 28 Apr 2025 UTC via an ATLAS V 551 launch vehicle from the Air Force Eastern Test Range (AFETR). Payload-class satellites include a variety of spacecraft equipped with specific instruments for various scientific and technological missions. These include communications satellites like Starlink; space stations such as the ISS; scientific satellites like the Hubble; Earth observation satellites from companies like Planet Labs, Umbra, and HawkEye 360; GPS; miniature CubeSats for education and research; and military/defense satellites.

Loading next visibility...
Identifier
63741, 2025-088T
Orbit
LEO
Country
Flag of USUS
Related business
Manufacturer
Kuiper Systems
Mission
Operational Commercial Communications
Bus & Motor
KUIPER, Unknown motor
Mass
~490 kg wet, ~490 kg dry
Launch date (UTC)
2025-04-28 (8 months ago)
Launch vehicle
ATLAS V 551
Launch site
Air Force Eastern Test Range (AFETR)
Object type
Payload
Rocket body
Debris
Shape & HBR
Box + 2 Pan, 3.4 m
Radar Cross Section
2.326 m², Large (>1 m²)

Expand to show TLE details & history
Last TLE update: 2 days ago

TLE from 2 days ago
0 KUIPER-00028
1 63741U 25088T   25348.04782100  .00002998  00000-0  42461-3 0  9996
2 63741  51.8995 112.2388 0003679 250.0577 109.9989 14.79677532 35370
Epoch: 2025-12-14T01:08Z
TLE epoch observation values (Epoch: 2025-12-14T01:08:51.734Z)
Latitude
-0.00002°
Longitude
12.05688°
Altitude
631.971 km
Speed
7.543 km/s
True Right ascension
07h 28m 57s
True Declination
0° 00' 00"
Sunlit
Object was in full shadow at epoch
Visualization orbit readout
Latitude
Unknown
Longitude
Unknown
Altitude
Unknown
Speed
Unknown
Apparent Right ascension
Unknown
Apparent Declination
Unknown
Sunlit
N/A
Visualization observer readout
Local Sidereal Time
13:18:57
Azimuth
Unknown
Elevation
Unknown
Doppler factor
Unknown
Orbital elements
Apogee altitude
633.372 km
Perigee altitude
628.215 km
Semi-major axis
7,008.93 km
Eccentricity
0.00037
Inclination
51.8995°
RAAN
112.2388°
Arg. of periapsis
250.0577°
True anomaly
110.03851°
Mean anomaly
109.9989°
Eccentric anomaly
110.01871°
Mean motion
3.69884 °/min
Orbital period
97.33 mins
BSTAR
0.00042461
Loading maneuver chart data...
Computing Atmospheric mass density...
Loading historical data...
Loading historical data...
Loading historical data...
Loading historical data...
Loading historical data...
Loading historical data...
Loading historical data...

Documentation

Showing up to 5 results
|